Wind_Speed
12 11 11 10 10 9 9 10 10 10 10 10 11 12 14 14 14 17 17 20 23 24 27 31 32 35 37 39 38 32 27 26 26 25 22 21 22 22 24 25 23 22 21 19 22
13 12 10 10 11 10 10 11 12 12 12 12 13 14 12 14 18 19 20 22 23 25 28 31 33 35 37 37 34 31 26 27 25 25 24 24 23 23 23 25 25 24 23 23 21
16 14 10 10 12 13 14 14 15 14 14 13 13 12 14 17 20 19 21 24 26 28 31 32 35 35 35 35 33 30 26 27 25 27 27 25 24 23 23 26 24 24 23 22 24
18 17 15 15 14 15 17 18 17 16 15 14 13 15 17 19 21 21 23 24 27 29 30 33 34 35 35 35 33 31 27 27 25 25 25 27 27 26 28 24 26 27 26 24 24
21 19 18 18 18 17 18 19 19 18 17 16 16 18 18 20 22 22 24 26 29 29 31 32 34 35 34 35 34 34 29 27 26 28 28 29 29 28 27 28 28 27 27 26 26
24 23 21 20 21 19 19 20 21 20 20 20 19 19 20 22 23 24 27 29 29 30 31 32 32 34 33 34 34 34 32 29 28 30 30 31 31 29 27 30 29 29 29 28 27
28 27 25 23 23 22 21 21 22 23 23 23 22 22 23 23 24 26 29 29 31 32 30 31 32 32 32 33 34 34 31 31 31 31 32 32 31 32 31 30 33 32 30 30 29
31 29 28 26 25 24 23 23 23 24 26 26 25 25 26 26 27 30 29 28 34 33 30 31 33 33 32 33 34 33 32 32 32 34 33 34 30 35 34 32 32 33 32 30 32
35 33 30 29 27 27 26 24 25 27 28 30 28 28 29 28 30 31 30 31 31 31 32 33 33 34 34 32 36 35 35 35 34 36 38 36 31 37 36 35 34 36 35 33 31
39 37 35 31 30 29 27 27 27 28 31 32 32 30 30 31 31 29 31 33 33 32 33 34 34 35 35 34 36 37 37 36 37 39 40 40 35 35 37 39 36 36 36 34 34
39 40 38 35 33 31 30 30 30 31 32 34 34 33 33 32 29 30 31 31 33 33 34 36 35 35 37 37 35 37 40 42 41 43 46 44 44 36 35 39 38 39 39 38 36
38 39 39 38 36 34 33 33 33 34 34 34 33 34 33 30 30 32 30 32 33 33 35 37 36 37 38 39 40 37 39 40 41 45 48 44 42 39 35 38 40 39 40 39 37
37 39 39 38 37 36 35 35 35 36 36 33 31 30 30 31 31 32 32 33 34 35 37 38 38 40 40 39 39 38 39 41 45 46 47 46 49 40 36 41 42 42 41 39 38
36 37 38 37 37 37 36 36 35 34 35 31 28 29 30 32 32 33 32 34 35 37 39 40 40 40 39 40 40 40 40 42 43 46 48 45 55 45 41 41 41 41 41 41 40
35 35 36 36 35 36 35 34 32 30 34 30 30 31 32 31 33 35 36 38 38 39 40 41 41 41 40 39 40 40 40 41 46 48 50 46 50 51 49 44 42 44 41 39 41
36 35 34 34 33 32 32 32 33 32 32 32 34 33 34 35 37 39 40 40 41 40 40 42 42 41 42 40 39 43 43 44 47 48 49 48 51 52 50 46 44 47 48 46 45
38 35 33 33 34 33 33 33 35 32 31 33 34 36 38 40 41 41 41 42 41 40 39 43 41 41 41 42 41 43 43 44 48 48 49 50 53 48 48 48 46 47 48 47 47
41 37 35 36 35 34 35 36 36 34 32 34 37 41 44 44 43 42 42 41 40 41 41 42 40 40 40 39 39 41 43 44 48 47 48 48 45 45 48 50 51 51 52 50 46
44 41 39 39 39 39 39 41 38 36 37 39 42 44 44 43 42 42 42 40 38 40 41 41 41 41 39 38 40 44 44 45 46 49 48 44 44 51 52 55 56 54 55 55 52
47 46 46 45 43 42 42 41 40 38 41 43 44 45 44 42 43 43 41 39 38 38 37 38 40 36 36 38 40 41 43 43 44 47 47 43 49 61 58 59 60 62 62 55 51
48 48 47 45 42 45 46 45 43 45 45 45 46 46 44 43 43 42 40 37 36 35 37 34 34 35 35 37 37 40 43 45 45 47 51 53 55 61 63 62 64 61 59 55 51
49 51 51 50 50 48 48 47 47 48 48 49 49 46 43 42 42 40 35 35 36 33 30 30 33 34 35 35 39 42 44 46 48 49 56 59 68 64 62 63 57 54 52 51 48
57 55 55 55 54 53 53 52 50 51 51 50 46 45 43 42 39 37 33 31 27 25 27 29 32 33 35 36 40 41 42 47 51 56 58 66 72 66 61 57 57 59 54 51 48
62 61 61 59 54 53 54 53 53 53 50 49 45 44 42 41 38 36 28 25 22 23 27 28 30 32 35 34 38 41 45 49 54 61 66 70 73 65 57 56 53 52 52 49 49
68 67 64 64 58 55 56 52 52 50 49 44 42 39 39 38 35 27 21 23 23 26 28 31 29 34 34 36 39 41 46 50 56 63 71 72 71 61 59 56 53 53 51 48 47
70 69 67 66 63 59 57 54 49 47 42 38 37 38 36 31 26 22 23 24 26 27 30 29 33 36 35 40 45 45 50 53 61 68 74 75 63 56 57 53 48 47 51 50 48
72 70 71 68 63 61 55 47 43 38 37 36 34 30 26 27 26 26 24 25 28 29 29 32 38 40 38 42 47 46 51 57 64 71 68 58 59 59 55 53 47 43 42 43 42
Wind_Direction
279 283 276 270 258 250 246 242 249 257 258 259 270 277 282 290 294 296 304 308 314 313 316 321 323 322 323 327 326 324 326 322 323 322 327 334 340 341 338 339 345 342 333 324 308
265 267 271 274 269 256 251 251 253 251 255 269 279 278 280 286 297 299 303 307 309 313 315 319 322 322 323 326 325 323 324 321 320 321 325 327 331 332 332 333 335 340 335 325 322
258 261 262 268 274 270 264 257 252 254 260 266 265 266 274 284 292 296 303 311 317 316 317 320 321 320 320 322 322 319 319 319 321 323 325 325 326 326 326 326 323 329 329 328 318
253 256 260 269 272 274 267 262 261 261 259 255 256 264 282 292 296 298 305 311 315 315 317 319 318 319 320 321 321 317 315 315 316 317 320 319 322 324 321 324 319 321 322 328 322
254 260 262 267 266 267 269 265 265 264 258 255 260 276 289 294 295 299 304 308 310 314 317 318 317 319 317 320 318 313 312 311 312 314 317 317 318 321 317 317 316 315 315 318 317
251 258 262 263 269 269 267 265 266 259 257 256 263 277 286 290 296 299 302 307 308 315 314 315 316 317 317 318 317 312 309 309 310 313 315 315 316 316 315 310 314 313 312 308 309
252 256 259 261 265 268 269 265 263 259 257 259 270 277 285 288 292 298 305 307 310 313 312 314 312 315 313 312 313 307 307 306 306 310 312 313 314 314 312 312 312 311 311 307 304
252 254 258 259 263 266 267 264 259 258 258 260 268 277 283 288 292 300 303 305 312 312 310 312 311 311 311 310 310 305 303 300 303 305 306 308 313 310 312 310 310 307 306 303 303
250 252 255 260 263 265 265 263 262 261 260 266 273 280 283 288 295 299 301 307 309 309 309 311 310 308 307 307 304 305 301 300 300 300 301 305 312 308 309 307 307 304 304 304 299
249 253 254 256 259 263 263 262 262 264 265 268 273 281 285 292 296 299 304 309 311 309 306 307 308 307 304 300 304 302 299 297 297 298 300 305 306 305 305 305 306 302 301 297 296
249 250 253 255 257 261 262 261 263 263 266 269 277 282 284 291 294 297 303 307 309 307 306 306 305 304 301 301 300 300 300 300 300 300 300 303 305 305 304 305 303 302 299 295 292
250 252 252 254 256 258 261 261 263 266 267 271 277 282 287 292 297 300 304 307 308 306 305 303 303 301 299 300 299 299 298 299 299 297 299 300 304 304 307 302 301 299 295 292 288
250 250 252 253 255 257 259 262 263 267 270 274 277 284 289 294 296 300 304 307 308 306 305 303 300 299 300 299 298 297 298 297 298 297 298 303 303 306 303 304 303 301 297 292 285
250 251 251 252 256 257 259 263 268 270 272 276 283 289 292 295 298 300 304 308 309 306 304 301 300 299 299 298 296 296 298 298 299 299 301 306 302 307 305 302 299 295 293 290 290
249 249 252 252 253 257 261 264 265 267 273 282 288 291 294 297 299 301 305 309 307 304 302 301 299 300 299 296 296 298 299 301 301 303 304 305 304 308 307 303 301 294 290 286 287
250 248 249 252 254 256 259 261 264 265 275 281 288 291 295 299 300 302 302 305 305 302 300 299 298 298 297 297 298 299 301 302 303 304 305 306 306 309 310 307 302 299 300 301 296
247 247 248 250 252 254 256 259 260 265 276 285 290 291 294 299 300 300 299 302 301 299 297 298 298 298 299 298 301 302 303 303 303 305 308 308 307 313 311 310 311 307 303 302 300
245 245 249 252 254 255 255 257 260 266 274 282 288 290 292 295 298 296 295 298 296 295 295 296 295 298 300 302 302 305 305 303 304 307 308 307 311 312 312 317 315 314 311 307 301
244 245 248 250 253 256 257 259 264 267 274 283 287 290 290 293 293 292 294 293 293 294 293 295 298 301 303 305 307 308 306 306 305 305 307 306 311 311 316 316 316 312 308 306 301
243 245 247 251 254 256 258 261 264 268 275 281 285 289 289 291 290 289 290 291 290 290 292 297 299 304 308 308 308 307 306 307 307 309 306 307 309 310 312 311 308 306 304 300 294
248 249 251 255 256 255 261 264 267 270 276 281 284 286 289 288 287 286 287 288 288 290 296 300 304 310 310 309 309 306 303 305 306 306 308 308 311 309 312 309 307 304 300 297 289
248 253 255 257 258 259 262 266 269 271 275 278 281 285 284 283 282 280 280 283 288 295 300 306 311 311 308 312 308 306 306 306 301 303 305 305 303 309 309 310 304 299 295 293 289
251 250 254 257 261 263 263 264 268 269 271 276 281 282 280 277 274 274 281 286 292 301 307 309 313 311 310 313 309 305 305 302 301 304 306 302 307 310 311 302 299 298 298 293 287
251 253 256 257 258 265 264 264 265 265 268 277 277 275 275 274 270 277 281 288 297 303 304 308 313 307 307 309 305 301 301 303 304 307 305 308 310 315 307 303 302 299 296 292 287
252 254 257 259 262 262 261 262 265 266 269 271 271 270 269 266 272 276 282 291 299 298 303 307 305 306 301 301 300 299 301 301 304 305 308 313 313 314 311 307 303 298 296 291 284
251 255 258 258 256 258 261 263 262 263 264 263 262 263 264 266 267 267 278 289 294 298 303 299 300 298 298 297 297 301 303 301 303 305 307 312 315 312 312 310 306 298 291 286 284
250 254 257 256 255 257 261 258 257 254 254 254 254 257 257 264 266 264 277 285 294 295 293 289 290 294 300 299 299 304 306 306 305 309 314 317 316 316 311 305 302 305 303 295 288
Height
5822 5822 5822 5822 5822 5821 5823 5824 5824 5825 5825 5826 5827 5827 5827 5827 5826 5826 5825 5825 5823 5821 5819 5816 5812 5809 5805 5802 5800 5799 5797 5794 5793 5789 5787 5785 5783 5782 5780 5779 5775 5774 5772 5769 5764
5818 5818 5818 5819 5820 5819 5820 5820 5821 5821 5822 5823 5824 5824 5824 5824 5823 5823 5822 5820 5818 5817 5815 5812 5809 5805 5802 5799 5797 5796 5794 5791 5788 5786 5784 5783 5782 5779 5776 5774 5772 5769 5768 5766 5762
5814 5815 5814 5814 5816 5817 5818 5818 5819 5819 5818 5819 5819 5820 5820 5820 5820 5818 5818 5817 5815 5814 5811 5808 5805 5801 5798 5795 5794 5791 5790 5787 5786 5783 5781 5779 5777 5774 5773 5770 5768 5766 5763 5762 5758
5809 5810 5810 5811 5812 5813 5814 5815 5815 5815 5815 5815 5815 5816 5816 5816 5817 5815 5814 5812 5810 5808 5806 5803 5800 5797 5794 5792 5790 5788 5785 5783 5782 5779 5776 5775 5774 5771 5768 5767 5763 5761 5759 5756 5754
5805 5807 5806 5808 5808 5809 5810 5810 5811 5811 5812 5812 5812 5813 5812 5812 5812 5811 5809 5807 5805 5803 5801 5798 5795 5792 5790 5788 5786 5784 5782 5779 5777 5775 5773 5771 5768 5768 5763 5760 5759 5756 5753 5751 5748
5798 5801 5802 5802 5804 5804 5804 5805 5806 5807 5809 5808 5807 5808 5808 5808 5807 5806 5805 5803 5801 5798 5795 5792 5790 5787 5785 5784 5782 5780 5778 5775 5773 5771 5768 5767 5763 5762 5760 5755 5753 5750 5747 5744 5742
5793 5795 5797 5797 5799 5799 5799 5800 5800 5802 5802 5803 5804 5803 5803 5803 5802 5800 5799 5798 5796 5793 5790 5787 5784 5782 5779 5778 5776 5774 5773 5771 5767 5765 5763 5760 5759 5756 5754 5750 5747 5744 5742 5738 5735
5787 5788 5791 5792 5792 5794 5794 5794 5794 5795 5797 5797 5798 5798 5798 5798 5797 5796 5793 5791 5790 5788 5785 5781 5779 5776 5774 5773 5770 5768 5767 5764 5762 5759 5757 5755 5757 5749 5748 5745 5741 5737 5734 5731 5728
5779 5781 5783 5786 5787 5787 5788 5789 5789 5790 5791 5793 5794 5794 5792 5792 5791 5790 5788 5785 5782 5781 5780 5776 5773 5771 5769 5767 5765 5762 5760 5758 5756 5752 5750 5750 5750 5743 5740 5737 5734 5729 5725 5723 5720
5771 5774 5776 5778 5779 5781 5782 5782 5783 5784 5785 5786 5787 5789 5788 5786 5785 5783 5781 5780 5778 5775 5773 5770 5767 5765 5763 5760 5759 5756 5754 5751 5747 5746 5743 5741 5741 5737 5733 5728 5727 5723 5719 5715 5711
5762 5765 5768 5771 5772 5773 5775 5776 5778 5778 5778 5779 5780 5781 5780 5779 5778 5776 5774 5773 5771 5769 5766 5764 5761 5759 5756 5754 5751 5748 5746 5744 5741 5736 5732 5731 5728 5728 5727 5720 5717 5714 5710 5705 5702
5753 5757 5760 5762 5764 5765 5767 5768 5769 5771 5771 5772 5773 5774 5773 5772 5772 5769 5768 5766 5764 5762 5759 5757 5755 5751 5748 5746 5745 5742 5739 5737 5734 5727 5724 5724 5721 5718 5718 5712 5706 5703 5700 5697 5693
5745 5747 5751 5753 5755 5758 5759 5761 5761 5763 5763 5765 5766 5767 5767 5767 5764 5763 5761 5758 5756 5755 5752 5750 5748 5744 5742 5739 5737 5733 5732 5728 5724 5721 5715 5715 5710 5711 5708 5702 5696 5692 5690 5686 5682
5737 5739 5742 5744 5749 5750 5751 5753 5754 5755 5755 5759 5761 5760 5760 5759 5758 5755 5753 5752 5749 5747 5744 5742 5739 5736 5734 5731 5729 5726 5723 5719 5715 5710 5706 5705 5697 5701 5698 5693 5687 5682 5679 5674 5671
5728 5730 5735 5737 5738 5741 5744 5745 5746 5748 5747 5752 5752 5750 5750 5751 5750 5749 5746 5743 5741 5738 5737 5734 5730 5727 5725 5723 5719 5718 5713 5710 5704 5700 5696 5693 5687 5683 5682 5680 5677 5672 5668 5665 5659
5720 5722 5726 5729 5731 5733 5736 5737 5739 5741 5741 5743 5743 5742 5742 5741 5740 5739 5737 5734 5732 5730 5727 5724 5721 5719 5716 5713 5710 5707 5703 5699 5694 5690 5686 5681 5677 5674 5665 5665 5665 5660 5656 5653 5648
5711 5714 5718 5720 5722 5724 5726 5729 5730 5732 5736 5736 5736 5735 5734 5733 5731 5729 5728 5725 5724 5721 5720 5716 5713 5709 5707 5704 5701 5696 5692 5687 5683 5680 5676 5669 5662 5662 5653 5651 5651 5648 5642 5638 5635
5702 5706 5709 5712 5714 5716 5718 5720 5721 5724 5726 5727 5727 5726 5725 5724 5722 5720 5718 5715 5714 5711 5709 5707 5705 5702 5699 5696 5692 5687 5682 5676 5668 5667 5668 5662 5657 5651 5646 5641 5636 5632 5627 5623 5621
5693 5696 5700 5702 5705 5707 5709 5709 5714 5716 5717 5717 5716 5715 5715 5714 5713 5710 5708 5706 5705 5703 5702 5699 5697 5695 5691 5686 5682 5676 5671 5665 5658 5654 5653 5652 5649 5638 5635 5631 5625 5619 5615 5611 5607
5681 5685 5689 5691 5695 5698 5699 5701 5703 5706 5706 5706 5705 5705 5705 5704 5703 5701 5698 5698 5696 5695 5693 5691 5688 5687 5683 5678 5673 5666 5661 5655 5648 5643 5639 5643 5638 5624 5625 5620 5613 5607 5601 5597 5594
5670 5673 5678 5680 5683 5686 5687 5691 5694 5695 5695 5695 5695 5694 5695 5693 5691 5691 5690 5689 5687 5686 5685 5682 5681 5679 5674 5670 5665 5659 5652 5647 5644 5636 5625 5624 5631 5617 5610 5601 5595 5590 5585 5582 5579
5659 5662 5666 5668 5673 5675 5677 5682 5684 5684 5683 5683 5684 5684 5684 5682 5681 5681 5681 5680 5679 5678 5677 5674 5671 5669 5666 5663 5656 5650 5644 5640 5633 5631 5620 5609 5604 5611 5597 5587 5576 5572 5567 5567 5565
5645 5649 5652 5656 5658 5663 5667 5669 5671 5672 5672 5673 5674 5673 5672 5672 5673 5672 5672 5672 5671 5671 5668 5667 5664 5660 5657 5656 5648 5642 5637 5632 5623 5618 5615 5597 5594 5587 5583 5571 5562 5554 5555 5551 5550
5630 5633 5639 5643 5648 5651 5654 5657 5658 5659 5659 5661 5663 5661 5662 5663 5662 5664 5664 5664 5663 5662 5660 5658 5656 5652 5649 5646 5639 5634 5630 5623 5612 5605 5593 5591 5572 5574 5564 5556 5551 5544 5538 5536 5534
5614 5619 5626 5630 5636 5638 5640 5643 5644 5647 5648 5649 5650 5651 5653 5653 5654 5654 5655 5655 5655 5653 5652 5649 5646 5643 5640 5636 5630 5626 5623 5615 5607 5597 5581 5573 5563 5556 5546 5538 5535 5531 5526 5523 5520
5599 5605 5611 5617 5620 5623 5625 5630 5633 5634 5637 5639 5642 5642 5643 5645 5645 5645 5645 5646 5646 5645 5642 5639 5636 5632 5631 5627 5621 5619 5614 5606 5598 5587 5574 5562 5552 5541 5534 5526 5519 5513 5509 5506 5503
5585 5590 5596 5601 5605 5608 5615 5618 5620 5621 5625 5628 5630 5633 5635 5636 5635 5636 5636 5636 5636 5635 5633 5630 5626 5622 5621 5617 5612 5610 5603 5594 5585 5574 5561 5549 5540 5531 5522 5512 5506 5501 5495 5490 5487